Time,TemperatureF,DewpointF,PressureIn,WindDirection,WindDirectionDegrees,WindSpeedMPH,WindSpeedGustMPH,Humidity,HourlyPrecipIn,Conditions,Clouds,dailyrainin,SoftwareType,DateUTC
2013-06-10 00:02:00,66.8,55.0,29.99,East,99,0.0,8.0,66,0.00,,,0.00,weatherlink.com 1.10,2013-06-10 04:02:00,
2013-06-10 00:17:00,66.6,55.0,29.99,ENE,73,1.0,8.0,67,0.00,,,0.00,weatherlink.com 1.10,2013-06-10 04:17:00,
2013-06-10 00:32:00,66.1,55.0,29.98,ENE,74,4.0,9.0,68,0.00,,,0.00,weatherlink.com 1.10,2013-06-10 04:32:00,
2013-06-10 00:47:00,65.8,56.0,29.98,SE,130,0.0,5.0,71,0.00,,,0.00,weatherlink.com 1.10,2013-06-10 04:47:00,
2013-06-10 01:02:00,64.7,57.0,29.98,South,182,1.0,6.0,75,0.00,,,0.00,weatherlink.com 1.10,2013-06-10 05:02:00,
2013-06-10 01:17:00,63.8,58.0,29.99,ENE,78,0.0,2.0,80,0.01,,,0.01,weatherlink.com 1.10,2013-06-10 05:17:00,
2013-06-10 01:32:00,62.3,58.0,29.99,East,94,2.0,7.0,86,0.03,,,0.03,weatherlink.com 1.10,2013-06-10 05:32:00,
2013-06-10 01:47:00,61.2,58.0,29.98,ESE,119,0.0,7.0,90,0.07,,,0.07,weatherlink.com 1.10,2013-06-10 05:47:00,
2013-06-10 02:02:00,60.8,59.0,29.97,ENE,65,2.0,4.0,92,0.14,,,0.14,weatherlink.com 1.10,2013-06-10 06:02:00,
2013-06-10 02:17:00,60.7,59.0,29.96,SE,131,0.0,4.0,93,0.22,,,0.23,weatherlink.com 1.10,2013-06-10 06:17:00,
2013-06-10 02:32:00,60.8,59.0,29.96,ESE,105,1.0,3.0,93,0.30,,,0.33,weatherlink.com 1.10,2013-06-10 06:32:00,
2013-06-10 02:47:00,60.8,59.0,29.95,East,101,2.0,4.0,94,0.44,,,0.51,weatherlink.com 1.10,2013-06-10 06:47:00,
2013-06-10 03:02:00,60.9,59.0,29.95,SE,129,0.0,3.0,94,0.50,,,0.64,weatherlink.com 1.10,2013-06-10 07:02:00,
2013-06-10 03:17:00,61.1,60.0,29.94,ESE,117,0.0,4.0,95,0.49,,,0.73,weatherlink.com 1.10,2013-06-10 07:17:00,
2013-06-10 03:32:00,61.1,60.0,29.93,ESE,112,1.0,3.0,95,0.40,,,0.74,weatherlink.com 1.10,2013-06-10 07:32:00,
2013-06-10 03:47:00,61.3,60.0,29.93,East,82,1.0,7.0,95,0.22,,,0.74,weatherlink.com 1.10,2013-06-10 07:47:00,
2013-06-10 04:02:00,61.3,60.0,29.93,ESE,115,0.0,6.0,95,0.10,,,0.75,weatherlink.com 1.10,2013-06-10 08:02:00,
2013-06-10 04:17:00,61.4,60.0,29.92,ESE,111,1.0,5.0,95,0.02,,,0.75,weatherlink.com 1.10,2013-06-10 08:17:00,
2013-06-10 04:33:00,61.6,60.0,29.91,SE,126,0.0,5.0,95,0.01,,,0.75,weatherlink.com 1.10,2013-06-10 08:33:00,
2013-06-10 04:48:00,61.6,60.0,29.90,ESE,121,4.0,6.0,95,0.01,,,0.75,weatherlink.com 1.10,2013-06-10 08:48:00,
2013-06-10 05:03:00,61.5,60.0,29.90,ESE,111,2.0,4.0,95,0.00,,,0.75,weatherlink.com 1.10,2013-06-10 09:03:00,
2013-06-10 05:18:00,61.5,60.0,29.90,East,100,3.0,6.0,95,0.00,,,0.75,weatherlink.com 1.10,2013-06-10 09:18:00,
2013-06-10 05:33:00,61.4,60.0,29.90,SE,136,0.0,5.0,95,0.00,,,0.75,weatherlink.com 1.10,2013-06-10 09:33:00,
2013-06-10 05:48:00,61.3,60.0,29.90,ESE,109,2.0,3.0,95,0.01,,,0.76,weatherlink.com 1.10,2013-06-10 09:48:00,
2013-06-10 06:03:00,61.1,60.0,29.89,ENE,71,1.0,5.0,95,0.01,,,0.76,weatherlink.com 1.10,2013-06-10 10:03:00,
2013-06-10 06:18:00,60.8,59.0,29.89,ESE,109,1.0,5.0,95,0.03,,,0.78,weatherlink.com 1.10,2013-06-10 10:18:00,
2013-06-10 06:33:00,60.7,59.0,29.89,ESE,106,0.0,4.0,95,0.06,,,0.81,weatherlink.com 1.10,2013-06-10 10:33:00,
2013-06-10 06:48:00,60.5,59.0,29.88,East,100,1.0,5.0,96,0.10,,,0.86,weatherlink.com 1.10,2013-06-10 10:48:00,
2013-06-10 07:03:00,60.5,59.0,29.88,ESE,111,3.0,7.0,96,0.16,,,0.92,weatherlink.com 1.10,2013-06-10 11:03:00,
2013-06-10 07:18:00,60.5,59.0,29.88,East,96,1.0,4.0,96,0.20,,,0.98,weatherlink.com 1.10,2013-06-10 11:18:00,
2013-06-10 07:33:00,60.4,59.0,29.88,East,81,0.0,4.0,96,0.22,,,1.03,weatherlink.com 1.10,2013-06-10 11:33:00,
2013-06-10 07:48:00,60.5,59.0,29.87,ESE,109,3.0,4.0,96,0.21,,,1.07,weatherlink.com 1.10,2013-06-10 11:48:00,
2013-06-10 08:03:00,60.7,60.0,29.87,ESE,107,0.0,4.0,96,0.18,,,1.10,weatherlink.com 1.10,2013-06-10 12:03:00,
2013-06-10 08:18:00,60.8,60.0,29.87,East,100,5.0,5.0,96,0.14,,,1.12,weatherlink.com 1.10,2013-06-10 12:18:00,
2013-06-10 08:33:00,61.0,60.0,29.87,ESE,109,0.0,4.0,96,0.09,,,1.12,weatherlink.com 1.10,2013-06-10 12:33:00,
2013-06-10 08:48:00,61.2,60.0,29.87,East,90,0.0,6.0,96,0.05,,,1.12,weatherlink.com 1.10,2013-06-10 12:48:00,
2013-06-10 09:03:00,61.3,60.0,29.87,East,83,2.0,3.0,96,0.02,,,1.12,weatherlink.com 1.10,2013-06-10 13:03:00,
2013-06-10 09:18:00,61.4,60.0,29.87,East,96,1.0,3.0,96,0.04,,,1.16,weatherlink.com 1.10,2013-06-10 13:18:00,
2013-06-10 09:33:00,61.6,61.0,29.87,ESE,107,1.0,6.0,96,0.09,,,1.21,weatherlink.com 1.10,2013-06-10 13:33:00,
2013-06-10 09:48:00,61.8,61.0,29.86,ESE,103,2.0,3.0,96,0.13,,,1.25,weatherlink.com 1.10,2013-06-10 13:48:00,
2013-06-10 10:03:00,62.2,61.0,29.85,ESE,103,4.0,4.0,96,0.17,,,1.29,weatherlink.com 1.10,2013-06-10 14:03:00,
2013-06-10 10:18:00,62.4,61.0,29.84,SSE,155,1.0,6.0,96,0.13,,,1.29,weatherlink.com 1.10,2013-06-10 14:18:00,
2013-06-10 10:33:00,62.8,62.0,29.84,SE,126,0.0,6.0,96,0.08,,,1.29,weatherlink.com 1.10,2013-06-10 14:33:00,
2013-06-10 10:48:00,63.0,62.0,29.84,ESE,105,0.0,5.0,96,0.03,,,1.29,weatherlink.com 1.10,2013-06-10 14:48:00,
2013-06-10 11:03:00,63.5,62.0,29.84,ESE,103,0.0,3.0,96,0.00,,,1.29,weatherlink.com 1.10,2013-06-10 15:03:00,
2013-06-10 11:18:00,63.9,63.0,29.83,ESE,115,1.0,3.0,96,0.01,,,1.30,weatherlink.com 1.10,2013-06-10 15:18:00,
2013-06-10 11:33:00,64.4,63.0,29.84,East,92,0.0,3.0,96,0.01,,,1.30,weatherlink.com 1.10,2013-06-10 15:33:00,
2013-06-10 11:48:00,64.8,64.0,29.84,SSW,196,0.0,2.0,96,0.01,,,1.30,weatherlink.com 1.10,2013-06-10 15:48:00,
2013-06-10 12:03:00,65.1,64.0,29.84,SSE,155,0.0,1.0,96,0.01,,,1.30,weatherlink.com 1.10,2013-06-10 16:03:00,
2013-06-10 12:18:00,65.9,65.0,29.84,ESE,111,1.0,4.0,96,0.00,,,1.30,weatherlink.com 1.10,2013-06-10 16:18:00,
2013-06-10 12:33:00,66.3,65.0,29.83,ESE,120,2.0,3.0,96,0.00,,,1.30,weatherlink.com 1.10,2013-06-10 16:33:00,
2013-06-10 12:48:00,66.3,65.0,29.83,East,84,0.0,3.0,95,0.00,,,1.30,weatherlink.com 1.10,2013-06-10 16:48:00,
2013-06-10 13:03:00,66.6,65.0,29.82,East,90,2.0,5.0,95,0.00,,,1.30,weatherlink.com 1.10,2013-06-10 17:03:00,
2013-06-10 13:18:00,66.7,65.0,29.83,ESE,111,0.0,2.0,94,0.00,,,1.30,weatherlink.com 1.10,2013-06-10 17:18:00,
2013-06-10 13:33:00,66.7,65.0,29.82,East,94,2.0,4.0,94,0.00,,,1.30,weatherlink.com 1.10,2013-06-10 17:33:00,
2013-06-10 13:48:00,67.5,66.0,29.82,ESE,105,2.0,2.0,95,0.00,,,1.30,weatherlink.com 1.10,2013-06-10 17:48:00,
2013-06-10 14:03:00,67.3,65.0,29.82,ESE,114,0.0,5.0,93,0.00,,,1.30,weatherlink.com 1.10,2013-06-10 18:03:00,
2013-06-10 14:18:00,67.9,66.0,29.81,South,175,0.0,3.0,94,0.00,,,1.30,weatherlink.com 1.10,2013-06-10 18:18:00,
2013-06-10 14:33:00,68.7,66.0,29.81,SE,133,0.0,4.0,91,0.00,,,1.30,weatherlink.com 1.10,2013-06-10 18:33:00,
2013-06-10 14:48:00,69.0,66.0,29.81,SE,133,1.0,2.0,91,0.00,,,1.30,weatherlink.com 1.10,2013-06-10 18:48:00,
2013-06-10 15:03:00,69.5,67.0,29.80,NE,44,0.0,2.0,90,0.00,,,1.30,weatherlink.com 1.10,2013-06-10 19:03:00,
2013-06-10 15:18:00,69.9,67.0,29.80,ENE,77,1.0,2.0,90,0.00,,,1.30,weatherlink.com 1.10,2013-06-10 19:18:00,
2013-06-10 15:33:00,70.4,67.0,29.80,East,98,0.0,2.0,89,0.00,,,1.30,weatherlink.com 1.10,2013-06-10 19:33:00,
2013-06-10 15:48:00,72.0,66.0,29.80,West,265,1.0,2.0,82,0.00,,,1.30,weatherlink.com 1.10,2013-06-10 19:48:00,
2013-06-10 16:03:00,72.0,66.0,29.79,SE,132,0.0,1.0,82,0.00,,,1.30,weatherlink.com 1.10,2013-06-10 20:03:00,
2013-06-10 16:19:00,72.3,67.0,29.79,SE,141,0.0,2.0,83,0.00,,,1.30,weatherlink.com 1.10,2013-06-10 20:19:00,
2013-06-10 16:34:00,72.9,69.0,29.78,SE,141,1.0,2.0,86,0.00,,,1.30,weatherlink.com 1.10,2013-06-10 20:34:00,
2013-06-10 16:49:00,73.3,66.0,29.78,East,82,3.0,3.0,79,0.00,,,1.30,weatherlink.com 1.10,2013-06-10 20:49:00,
2013-06-10 17:04:00,73.8,67.0,29.78,West,273,0.0,2.0,80,0.00,,,1.30,weatherlink.com 1.10,2013-06-10 21:04:00,
2013-06-10 17:19:00,75.1,67.0,29.77,WSW,257,1.0,5.0,77,0.00,,,1.30,weatherlink.com 1.10,2013-06-10 21:19:00,
2013-06-10 17:34:00,74.6,67.0,29.77,SSE,150,1.0,2.0,76,0.00,,,1.30,weatherlink.com 1.10,2013-06-10 21:34:00,
2013-06-10 17:49:00,74.1,67.0,29.77,SSE,165,0.0,1.0,78,0.00,,,1.30,weatherlink.com 1.10,2013-06-10 21:49:00,
2013-06-10 18:04:00,72.6,67.0,29.77,ENE,77,0.0,3.0,82,0.00,,,1.30,weatherlink.com 1.10,2013-06-10 22:04:00,
2013-06-10 18:19:00,72.2,67.0,29.77,ESE,119,1.0,3.0,84,0.00,,,1.30,weatherlink.com 1.10,2013-06-10 22:19:00,
2013-06-10 18:49:00,72.2,67.0,29.77,East,96,0.0,3.0,84,0.00,,,1.30,weatherlink.com 1.10,2013-06-10 22:49:00,
2013-06-10 19:04:00,71.6,67.0,29.77,East,93,0.0,6.0,86,0.00,,,1.30,weatherlink.com 1.10,2013-06-10 23:04:00,
2013-06-10 19:19:00,70.4,66.0,29.77,NNE,30,5.0,6.0,86,0.00,,,1.30,weatherlink.com 1.10,2013-06-10 23:19:00,
2013-06-10 19:34:00,69.1,66.0,29.78,East,92,0.0,2.0,88,0.00,,,1.30,weatherlink.com 1.10,2013-06-10 23:34:00,